Wind_Speed
30 29 33 35 33 32 31 31 29 23 19 20 22 24 25 20 22 24 16 17 26 27 27 24 24 28 20 17 22 18 13 14 16 18 16 11 10 11 15 17 17 18 20 23 24 21 20 20 20 20 17 15 17 19 19 21 21 19 18 18 17 18 17 15 15 14 14 14 14 15 15 13 11 9 9 9 8 7 6 5 4 4 4 5 5 6
30 32 35 34 29 28 29 27 28 27 20 17 20 23 26 21 20 24 17 16 23 24 24 23 22 26 22 19 23 19 14 14 13 12 15 13 11 13 16 17 19 23 24 24 21 18 19 20 17 15 12 10 14 17 17 18 18 16 17 18 16 17 17 15 15 14 14 15 16 15 13 12 10 9 9 8 8 6 5 4 4 5 5 5 6 7
31 35 32 29 28 26 26 27 28 28 22 18 18 20 25 23 20 23 20 17 21 23 21 23 22 21 21 21 19 18 15 13 11 9 11 12 12 17 18 17 16 19 21 19 15 16 20 19 14 13 12 11 13 17 19 17 16 16 18 17 15 18 18 16 16 15 15 16 17 14 10 10 9 9 9 8 6 5 5 5 5 5 5 6 7 8
32 33 29 27 27 26 26 28 29 27 23 20 18 19 23 24 22 21 21 17 19 23 20 21 23 17 17 19 16 17 17 12 10 10 11 10 11 15 14 15 14 13 13 13 13 16 19 17 14 15 14 13 15 18 20 18 17 18 18 16 16 19 18 15 15 15 15 17 15 12 10 9 9 8 8 7 5 5 5 5 5 6 6 7 8 9
28 26 27 26 26 28 26 27 31 27 23 23 22 20 21 22 22 19 19 18 17 22 21 20 23 19 16 17 17 18 17 12 11 13 15 15 14 15 14 15 15 13 13 14 16 18 20 19 17 15 15 16 16 17 19 18 17 18 16 16 16 17 16 14 14 15 17 16 13 12 10 9 9 8 7 6 6 6 5 5 6 6 7 8 9 9
25 22 27 29 27 29 26 26 32 29 23 24 24 21 18 19 22 18 18 20 18 21 25 21 18 19 19 18 18 19 17 15 16 16 19 21 20 18 17 18 19 18 19 23 23 23 25 23 18 15 14 14 14 15 17 17 18 16 15 16 17 15 14 14 15 17 16 14 11 11 11 10 9 8 6 6 6 6 6 6 6 7 8 8 9 9
23 22 27 31 29 29 28 27 30 29 25 23 23 22 17 16 21 20 18 21 20 19 24 24 17 16 20 22 24 22 18 18 20 20 21 22 22 21 19 20 23 24 25 28 29 28 27 22 17 15 12 11 11 13 15 16 18 16 15 17 17 14 14 15 18 18 14 12 12 11 11 10 8 7 6 6 6 6 7 7 7 8 9 9 9 9
25 24 27 31 29 29 31 28 29 30 27 21 20 22 18 15 18 20 19 20 19 16 21 28 24 18 18 23 27 26 20 20 23 24 24 23 22 23 23 23 24 25 26 28 29 29 25 20 17 13 10 10 11 13 15 15 17 16 16 16 15 14 16 17 17 15 12 11 12 11 10 8 6 6 6 7 7 7 7 7 8 9 9 9 9 9
24 25 27 30 30 29 30 28 26 29 27 19 16 22 20 13 14 19 20 20 19 17 20 27 27 20 16 19 26 26 25 24 25 25 25 24 22 22 26 27 26 26 26 27 27 25 22 19 17 13 12 11 11 13 15 16 18 15 14 14 15 16 17 16 14 13 12 11 10 9 8 7 7 8 8 8 7 7 7 8 9 9 9 9 9 9
22 25 26 29 29 28 27 26 24 27 28 19 14 20 22 15 12 15 17 19 19 18 18 23 26 19 14 19 27 25 27 27 25 26 26 25 23 22 23 25 28 28 27 28 26 23 22 21 18 15 13 11 10 13 15 16 17 14 13 14 15 16 14 13 13 12 12 10 9 9 9 9 9 9 9 8 8 8 8 8 9 9 9 9 9 9
19 21 24 28 28 25 24 24 23 26 28 18 13 20 22 18 14 12 14 17 16 16 18 21 25 21 13 17 28 25 26 27 26 27 28 26 24 23 20 23 28 30 29 30 27 24 24 23 19 15 12 11 12 13 13 14 14 14 16 16 15 15 14 13 14 13 13 11 11 10 10 10 10 10 10 9 8 9 9 9 9 9 9 9 9 10
19 21 24 26 26 23 22 24 23 25 28 19 15 21 20 19 16 13 15 16 12 12 18 22 24 23 16 14 23 26 25 27 26 27 28 27 26 24 23 23 26 28 29 30 29 28 26 22 18 16 14 13 13 12 13 13 14 15 17 17 16 16 15 16 17 16 15 14 13 12 11 11 11 10 10 9 9 9 9 9 9 9 9 10 10 11
21 23 24 23 25 24 23 26 24 26 30 22 19 23 19 15 14 12 13 13 12 12 15 23 24 22 20 18 21 24 25 26 26 26 26 27 26 25 24 23 24 27 28 30 30 30 26 22 20 19 16 15 14 13 14 15 16 17 17 17 17 18 19 20 19 17 17 16 14 13 13 12 11 11 10 10 10 10 9 9 9 9 10 10 11 12
20 20 24 25 25 27 26 28 28 29 34 27 24 27 20 12 10 10 10 10 12 12 14 21 23 20 20 19 20 23 24 25 26 25 25 26 25 24 23 23 24 26 29 30 30 29 26 23 22 20 17 17 16 15 16 17 18 19 20 19 19 20 22 22 20 19 18 17 15 14 13 12 12 11 11 11 10 10 10 10 10 10 10 11 12 13
21 17 27 30 27 29 29 28 28 28 32 29 25 26 22 16 11 9 10 10 11 14 17 17 16 18 18 13 15 22 22 22 25 25 25 25 24 24 24 25 25 27 30 30 30 29 26 24 23 20 18 17 15 15 17 17 19 21 21 20 20 21 23 23 21 20 18 17 16 15 14 13 12 12 12 11 11 10 10 10 10 10 11 12 13 13
22 16 25 29 24 28 30 26 25 25 28 28 25 25 26 23 17 11 8 6 7 11 15 16 13 13 12 7 13 20 20 21 24 24 24 23 23 25 27 28 25 27 30 30 29 29 27 25 24 21 18 17 16 16 17 17 19 22 21 21 21 21 22 23 21 20 19 18 17 15 14 13 13 13 12 12 11 11 11 10 10 11 12 13 13 14
21 15 23 27 22 27 31 26 24 24 25 25 27 29 27 23 19 13 7 3 5 8 11 17 15 11 10 9 15 19 19 22 23 23 24 23 24 28 31 29 26 28 30 29 28 27 27 26 24 20 18 18 18 18 18 19 20 22 22 22 22 22 22 22 21 20 20 19 18 16 15 14 14 14 13 13 12 12 12 11 11 12 13 13 14 14
19 16 23 27 22 25 30 25 22 23 22 24 29 29 23 21 20 17 12 6 7 9 10 18 20 16 15 14 18 21 20 23 24 24 25 25 27 31 32 28 28 30 30 28 28 27 27 27 24 21 19 19 20 20 19 20 20 21 22 23 22 22 22 22 22 21 20 20 19 17 16 15 15 14 14 14 13 13 13 12 12 13 14 14 14 14
20 17 20 24 21 23 28 26 22 23 23 22 24 25 21 20 21 20 14 9 10 9 8 17 20 20 21 19 22 24 22 23 25 25 25 26 29 31 29 28 31 32 30 28 28 28 29 28 26 23 21 21 23 22 20 19 19 20 21 22 22 22 22 23 23 22 22 21 20 18 17 16 16 15 15 15 14 14 14 13 14 14 15 15 14 14
22 18 18 22 21 22 28 29 26 27 27 21 19 24 24 20 20 21 16 12 12 9 7 14 16 17 22 23 26 27 26 26 27 26 27 28 30 30 29 30 34 33 29 29 29 28 29 30 27 25 23 22 23 22 21 20 20 20 21 21 22 22 22 23 23 23 22 22 21 20 19 19 17 17 16 16 16 15 15 15 15 15 15 15 15 14
24 20 18 21 22 24 28 32 29 28 30 26 22 26 28 23 20 20 18 18 16 10 7 9 10 14 19 21 25 27 27 28 28 27 28 29 30 31 31 32 34 33 30 29 29 28 30 31 28 26 25 22 23 24 23 23 22 21 22 22 22 22 22 23 23 23 23 22 22 21 21 21 20 18 18 18 17 16 16 16 16 16 16 15 15 15
23 21 20 22 25 27 28 29 28 25 29 29 23 24 27 25 21 16 15 20 20 15 11 9 9 12 15 18 22 24 26 27 27 27 28 29 29 31 34 34 32 33 32 31 29 28 30 31 29 28 25 23 24 25 24 24 23 23 25 25 24 24 24 24 24 24 24 24 23 23 22 22 21 21 20 20 19 18 17 17 16 17 16 16 16 15
20 20 21 22 23 24 21 23 25 23 26 27 23 23 24 24 25 18 14 19 20 18 15 13 10 7 10 15 18 21 24 25 25 25 26 27 28 30 34 35 33 33 33 32 30 30 31 31 29 27 25 23 24 25 26 25 23 23 25 25 25 24 25 26 27 27 26 25 24 24 24 23 23 22 22 21 20 18 17 17 17 17 17 16 16 16
19 19 22 21 20 20 18 20 24 22 23 27 26 27 26 24 26 22 16 17 18 18 16 12 7 6 10 14 18 21 23 23 23 25 26 28 29 31 32 33 34 34 34 32 31 31 31 32 31 29 26 24 24 25 26 26 22 21 22 22 22 22 23 24 25 26 26 25 25 24 24 24 24 23 22 21 20 18 17 17 17 17 17 17 17 17
20 19 24 21 16 17 16 17 23 26 26 27 29 31 29 24 23 22 19 17 16 19 19 13 7 6 10 15 20 22 22 22 23 24 27 30 31 31 31 31 33 35 35 32 30 30 31 32 32 31 29 27 25 24 25 25 22 21 20 18 17 18 19 21 21 22 22 23 23 24 24 25 25 24 22 21 19 18 17 17 18 17 17 17 17 18
20 20 24 20 13 14 15 16 25 30 29 26 26 29 29 25 23 23 21 19 16 16 20 19 10 9 13 17 20 20 21 23 24 24 28 31 32 32 31 31 33 35 35 33 32 31 31 32 33 33 32 30 27 25 26 26 24 23 21 16 14 15 18 19 20 20 20 21 21 23 24 25 24 23 22 20 19 17 17 17 17 17 17 17 18 18
20 20 23 21 17 17 17 17 21 25 26 24 24 27 29 28 25 23 22 22 19 15 17 20 13 13 16 21 23 21 20 24 28 29 30 32 32 33 32 32 33 34 34 35 34 33 32 34 36 35 34 32 28 27 28 28 27 25 20 15 13 16 19 20 20 20 20 20 19 21 23 23 23 22 20 19 18 17 17 17 17 17 17 17 18 19
18 20 24 23 20 19 17 15 17 20 25 25 23 25 28 29 28 25 23 23 20 15 15 18 15 14 16 23 27 24 21 24 30 32 33 33 33 34 34 34 33 32 33 36 35 34 34 36 37 36 34 32 30 29 28 27 26 25 21 16 14 16 19 21 21 20 19 19 18 20 21 22 21 20 19 18 17 17 17 16 16 16 16 17 17 18
15 18 24 23 20 19 17 16 17 19 23 25 24 24 26 28 29 27 24 21 19 17 15 16 17 16 16 20 25 25 22 25 30 32 34 34 34 33 34 34 32 29 32 35 35 34 35 36 36 36 34 32 30 29 28 25 24 23 21 19 17 17 18 20 20 20 19 18 18 20 20 20 19 18 17 17 16 16 15 15 15 15 15 16 17 17
13 16 24 22 19 19 19 19 18 18 20 24 25 25 25 27 28 27 24 21 21 20 16 13 14 17 18 19 22 23 23 25 28 31 35 36 34 32 31 31 29 27 30 34 35 36 36 36 36 35 34 32 30 29 27 23 22 22 20 18 17 18 18 18 17 18 18 18 19 20 20 19 18 17 16 15 15 14 14 14 15 14 14 15 15 16
13 15 22 21 18 19 19 17 16 16 19 21 24 26 26 26 27 27 25 23 23 23 20 15 12 13 16 18 20 23 23 23 21 22 25 28 29 28 28 28 28 27 30 33 36 37 38 38 37 36 36 33 30 28 26 23 23 22 19 17 17 17 17 17 17 16 17 18 19 20 19 18 16 15 14 14 14 13 13 13 13 13 13 13 13 12
15 14 20 22 19 18 17 14 12 14 18 21 24 26 28 28 26 26 26 25 24 23 21 19 15 13 14 16 18 21 20 18 16 13 11 12 14 18 21 24 26 28 31 34 36 38 39 39 39 38 37 32 29 29 26 24 25 23 19 18 19 18 17 17 17 16 17 19 19 19 18 16 15 14 13 13 12 12 12 11 11 11 11 11 10 8
16 14 20 24 20 17 17 16 15 14 15 19 23 25 26 27 26 24 24 25 24 23 22 21 18 14 14 17 20 21 20 20 19 17 15 14 13 13 15 19 23 27 31 34 36 37 38 38 36 35 33 30 30 30 27 25 24 21 18 18 18 18 18 17 16 16 19 20 19 18 17 14 13 12 11 11 10 10 10 9 9 9 9 8 6 4
17 13 18 23 19 16 16 16 16 15 13 13 18 21 21 23 24 25 24 23 23 23 22 21 19 14 13 17 20 19 19 21 22 20 20 20 18 15 14 16 20 26 30 33 35 35 35 33 33 32 32 32 32 28 25 23 21 18 17 17 18 17 16 15 15 18 20 20 18 17 15 13 12 10 10 9 8 8 7 7 7 7 6 5 3 2
18 14 17 20 17 15 17 16 13 13 12 9 12 19 23 21 20 22 24 24 24 24 22 21 21 18 14 15 18 17 16 19 23 22 20 19 19 16 14 16 20 25 29 31 32 31 29 30 34 35 34 34 30 24 21 20 18 17 17 17 17 16 15 14 16 18 19 19 17 15 14 13 11 9 8 7 6 5 4 4 5 5 5 3 2 3
19 16 17 18 16 14 16 17 12 7 7 8 9 15 21 22 19 18 20 23 25 25 25 23 22 21 17 15 15 17 18 20 22 23 21 18 17 16 15 17 21 24 26 28 28 27 28 33 37 35 32 30 25 20 19 19 18 17 18 16 16 14 14 15 17 19 18 17 16 16 14 12 10 9 7 6 5 3 2 3 4 5 5 3 2 3
20 17 17 18 17 14 15 17 13 5 6 10 11 11 13 17 19 19 19 21 23 24 25 25 23 22 20 16 15 18 21 23 23 25 24 19 16 15 17 18 19 19 21 24 24 24 29 34 32 26 24 24 21 19 19 19 18 18 17 16 14 13 14 16 17 18 18 17 17 16 14 12 10 9 8 6 5 3 2 4 5 5 4 3 1 2
22 20 17 16 16 14 12 14 12 7 8 11 13 13 12 13 15 17 18 21 23 24 25 25 25 24 20 18 20 23 24 25 27 27 24 18 14 16 19 18 17 17 19 22 22 23 26 28 25 22 22 21 19 19 19 18 17 16 14 13 12 13 15 17 17 17 17 16 15 14 12 11 10 9 8 6 4 3 4 6 6 5 4 2 1 1
21 20 17 15 15 14 12 11 11 10 8 7 8 11 14 13 12 13 16 19 22 25 27 26 27 26 24 23 24 26 28 29 30 29 24 15 13 17 19 20 20 19 19 21 22 22 23 24 25 25 23 21 20 19 18 16 14 13 11 11 13 14 16 17 16 16 15 13 12 12 11 11 10 8 7 6 5 6 8 8 7 5 3 2 1 1
21 21 20 18 16 16 14 12 11 10 7 6 7 8 10 12 11 12 12 13 16 23 27 29 29 27 26 27 29 29 31 29 26 26 22 15 15 18 20 22 23 22 22 23 24 24 24 25 27 27 24 22 21 18 16 14 12 11 11 12 14 16 17 16 15 15 14 13 13 13 12 10 9 8 8 8 9 10 10 9 7 4 3 2 2 2
21 20 21 21 19 17 16 14 13 10 6 6 7 7 7 9 12 13 10 6 10 18 23 26 29 28 28 31 31 30 30 27 24 26 23 18 18 20 20 21 23 24 25 26 26 26 28 28 28 26 23 22 20 16 14 13 12 12 13 14 16 17 17 16 15 15 15 15 15 14 12 10 10 10 11 12 13 12 10 8 6 4 3 2 2 2
22 20 20 21 20 18 17 16 14 10 9 9 9 8 8 8 9 11 9 5 8 16 20 22 24 27 30 31 29 27 30 30 28 28 25 20 20 18 17 20 25 28 25 24 24 26 29 29 27 25 23 20 17 14 13 12 13 14 14 15 16 16 16 16 15 15 15 15 15 14 13 12 13 14 14 14 13 11 9 7 6 4 4 2 1 2
21 21 20 20 20 17 16 16 13 9 9 11 10 9 10 10 8 7 8 8 8 10 16 20 22 25 29 29 27 29 31 30 29 28 26 23 21 16 15 21 27 29 27 27 29 30 30 29 28 25 21 18 15 13 13 14 15 15 15 15 16 16 15 15 15 15 15 15 14 14 14 14 15 15 15 14 12 10 8 7 6 4 3 1 2 3
17 20 19 18 20 19 16 15 12 7 5 7 9 9 10 12 11 8 9 11 10 8 11 17 20 23 28 30 30 32 31 28 28 29 27 25 22 17 16 23 27 28 30 31 32 32 31 30 27 23 20 17 15 14 14 16 17 16 16 16 16 15 15 14 14 15 15 15 15 15 15 16 17 16 14 12 10 9 8 6 5 3 2 2 3 4
15 18 17 14 17 18 15 12 8 5 5 6 5 7 9 10 11 10 11 13 10 8 8 13 19 24 29 30 29 29 30 30 29 29 27 24 21 17 18 23 26 28 31 32 32 32 31 28 24 21 20 18 15 15 17 19 19 17 17 16 15 15 15 15 15 16 17 17 16 16 17 17 17 15 13 12 11 9 8 6 4 2 2 2 3 4
13 17 17 13 12 14 16 13 6 3 7 9 7 7 9 11 12 13 14 15 13 9 6 8 13 19 23 24 22 22 28 31 30 29 28 24 19 17 19 23 27 31 33 33 33 33 32 28 25 22 20 17 16 17 20 21 19 18 17 15 15 14 15 16 17 18 18 18 18 18 18 18 17 14 13 12 10 8 6 4 3 2 2 2 3 3
13 16 17 14 11 12 14 16 13 8 8 8 7 6 7 9 11 14 16 17 17 14 10 7 7 9 13 18 20 22 27 31 31 30 28 22 18 18 23 28 32 34 34 33 33 34 32 28 25 21 18 16 17 20 21 21 20 18 17 15 14 15 16 17 18 19 19 19 19 20 19 17 16 14 13 11 9 7 5 4 3 2 2 2 2 2
13 15 15 14 14 13 11 12 15 14 12 10 8 8 7 7 8 12 16 19 19 17 13 10 7 6 9 14 20 26 29 30 31 30 25 20 19 22 29 34 36 35 34 33 34 32 29 25 22 19 16 17 19 21 22 20 19 17 15 14 15 16 17 19 20 20 20 20 20 20 18 16 15 14 12 10 8 6 4 3 2 2 1 1 1 1
12 12 13 13 13 14 12 12 15 16 14 13 13 12 10 8 6 8 12 16 18 16 14 12 8 7 8 10 15 22 25 28 30 27 22 19 20 26 34 37 37 35 34 34 33 30 26 23 20 18 17 19 22 22 21 19 17 15 14 15 16 17 19 21 22 22 21 22 21 20 18 16 14 13 11 9 7 5 4 4 3 2 1 0 0 1
11 10 12 12 12 13 13 14 13 12 10 12 13 13 11 9 7 7 8 12 14 14 13 12 10 7 7 9 11 15 20 23 25 23 19 18 21 29 36 39 37 35 35 34 33 30 26 22 19 19 20 23 23 22 20 18 16 15 15 16 17 19 21 22 22 23 23 23 21 19 17 16 14 12 10 8 7 6 5 4 3 3 2 1 1 2
13 11 11 13 13 13 13 13 12 11 10 11 11 11 11 10 9 8 8 10 12 12 12 12 10 7 7 9 9 12 17 20 21 21 20 20 24 31 38 40 39 37 35 34 33 30 26 23 21 22 24 25 23 21 19 17 16 16 16 17 19 21 22 23 23 24 24 22 20 18 17 15 13 11 10 8 8 7 6 5 4 3 2 1 2 2
Wind_Direction
193 197 202 205 205 203 204 206 209 212 213 214 210 208 213 213 206 208 206 195 193 197 207 208 211 219 217 213 216 219 223 212 204 212 212 217 227 216 218 210 196 203 206 202 195 189 198 209 212 220 218 204 203 212 216 221 223 220 219 213 208 219 221 211 212 210 204 206 202 199 194 180 172 169 165 171 180 180 185 198 220 237 256 272 286 296
194 203 206 205 203 202 205 206 208 213 218 221 217 208 210 214 207 205 202 186 189 199 207 208 213 219 217 216 219 219 225 214 197 203 214 225 220 210 232 231 208 199 194 193 195 198 212 217 220 233 240 229 226 232 235 237 236 226 224 219 208 216 222 211 209 208 203 204 203 200 188 165 160 164 164 175 182 179 189 210 233 254 271 285 295 303
198 209 207 203 202 202 205 205 207 212 217 221 218 207 206 210 209 204 196 186 192 202 207 206 211 219 212 208 209 209 219 215 193 189 212 223 192 189 227 240 221 205 192 192 204 218 228 226 225 239 245 244 242 245 248 250 247 237 231 225 211 214 218 209 202 202 202 200 193 186 170 153 159 167 169 177 181 184 207 226 246 265 278 290 299 307
200 208 203 200 201 201 205 204 206 210 211 215 212 205 205 206 208 200 188 186 194 201 206 203 204 206 198 194 189 197 213 209 186 178 181 197 190 182 208 222 213 206 199 204 215 227 235 232 229 236 237 237 236 240 244 244 242 238 234 228 219 215 214 205 199 198 197 195 181 164 156 159 168 175 174 178 190 209 227 242 259 273 284 294 301 306
203 205 197 198 199 200 203 201 202 205 206 211 210 208 208 204 207 202 184 183 193 203 210 205 200 200 191 178 169 184 201 189 177 183 171 169 184 182 188 210 216 207 208 219 220 229 238 236 235 233 230 232 231 232 239 243 243 237 231 231 227 219 209 199 197 194 190 187 169 151 158 170 179 185 184 189 207 229 246 259 269 280 289 297 301 304
205 202 194 196 197 198 200 200 200 202 202 208 211 212 213 207 207 203 186 184 193 204 208 207 206 205 195 184 183 190 199 190 179 186 178 167 174 184 187 197 201 198 208 220 219 222 228 229 233 231 227 232 230 229 237 242 243 235 225 229 228 219 207 196 193 193 186 176 159 155 168 180 191 195 194 206 222 238 254 265 277 286 291 297 300 298
204 199 194 195 196 195 198 202 200 198 201 208 209 210 216 220 212 203 191 190 197 202 201 204 215 210 194 198 208 207 201 195 185 183 185 177 176 185 190 190 193 198 208 215 215 217 221 222 225 228 231 235 231 228 231 234 240 235 220 220 221 213 203 193 192 190 179 164 160 170 181 185 193 197 207 227 237 247 259 270 279 286 293 298 299 298
200 194 194 194 194 194 198 202 197 194 203 210 206 204 211 228 218 199 192 197 203 205 198 202 215 224 210 201 203 201 194 193 192 188 187 188 187 186 186 188 196 204 209 212 213 213 216 218 219 223 228 226 223 225 229 234 239 232 217 215 214 205 196 189 189 182 168 165 170 179 187 191 203 213 225 239 248 260 268 276 283 290 298 299 298 298
196 193 191 189 189 193 197 198 193 193 204 212 202 198 201 215 213 197 198 206 209 210 204 201 208 228 233 196 183 189 194 192 193 193 189 189 194 194 189 188 195 203 206 209 211 210 212 215 215 217 222 221 218 222 229 234 233 224 212 210 206 202 194 184 182 175 167 172 177 185 199 210 223 230 238 248 258 269 275 280 287 293 298 297 296 296
195 195 188 184 187 193 196 196 195 195 201 208 196 192 195 201 205 201 206 210 211 217 214 201 200 219 234 187 174 186 196 194 193 194 194 193 196 200 195 190 196 202 205 209 210 210 212 212 212 217 222 222 220 220 222 225 226 219 209 206 200 198 193 181 181 182 182 187 193 202 216 224 233 240 246 255 262 267 270 277 288 294 296 294 292 293
187 186 184 190 193 196 197 196 197 195 196 199 187 185 192 200 204 207 215 216 219 224 217 206 201 213 227 182 176 190 197 196 196 192 194 200 202 206 201 194 200 203 204 208 209 208 211 209 209 215 219 225 228 218 208 209 215 211 204 203 201 197 193 188 192 197 201 208 212 217 225 231 239 245 251 259 261 262 269 279 289 293 294 292 291 293
184 185 189 196 198 196 195 194 194 193 194 194 184 183 188 194 200 207 214 220 231 226 211 209 208 211 220 196 186 196 197 195 196 190 191 196 202 211 208 200 203 204 203 206 206 207 208 206 205 209 215 228 229 209 196 199 206 206 201 199 201 200 200 201 202 205 210 216 221 226 234 240 244 249 253 257 257 263 275 285 291 293 295 295 296 299
189 197 195 195 197 194 191 189 186 189 196 193 184 187 185 182 193 202 205 212 227 228 210 208 212 215 222 218 198 192 193 193 193 192 192 190 192 204 207 200 201 205 205 204 205 208 205 201 204 211 218 225 217 198 191 194 199 205 206 203 202 201 203 206 206 209 215 220 226 232 238 242 247 251 254 255 259 270 282 289 292 295 297 298 299 302
185 197 195 192 194 193 191 188 183 186 195 193 186 191 192 183 188 196 199 206 216 224 214 206 211 216 219 222 207 193 194 195 191 191 192 189 190 196 204 209 208 208 209 206 208 209 201 198 205 213 223 227 215 197 191 192 198 206 207 207 205 204 207 209 210 215 219 224 231 235 238 242 246 251 253 256 265 276 285 291 294 296 297 298 301 303
183 193 193 190 190 190 193 194 187 185 194 196 193 198 204 203 196 192 205 211 207 213 212 209 218 216 210 214 201 189 187 190 191 190 189 192 193 191 201 214 214 210 211 209 209 208 200 198 205 213 223 222 210 198 194 196 205 210 209 209 209 209 213 215 217 221 225 228 233 235 238 243 246 250 254 259 268 278 287 292 294 295 297 299 302 304
189 196 189 186 188 188 191 193 188 188 195 196 197 207 213 210 201 194 214 225 216 215 207 208 221 210 196 186 174 175 177 183 188 188 191 195 193 191 202 213 213 211 211 210 209 206 199 199 205 211 214 206 196 195 196 202 211 214 214 214 214 216 219 221 223 226 229 231 233 235 239 243 246 251 255 261 270 280 287 291 292 295 298 301 303 304
191 193 180 180 185 187 187 188 190 194 195 191 198 211 213 210 207 200 208 224 221 227 203 199 205 183 172 177 170 173 179 183 184 184 188 190 187 196 206 211 214 216 215 215 213 205 198 203 207 204 201 196 192 195 199 207 215 217 219 220 220 222 223 225 226 228 231 233 233 236 240 245 248 251 255 261 271 280 286 288 291 295 298 301 303 303
186 174 170 178 182 185 186 188 195 200 196 190 200 209 206 209 218 213 209 199 202 224 202 194 200 193 190 190 176 178 181 181 183 183 181 180 187 203 211 210 216 221 220 219 215 206 202 208 209 198 192 192 193 199 204 210 218 221 223 224 225 227 228 229 229 231 234 235 234 237 242 247 251 253 256 261 270 278 283 287 291 295 298 299 300 301
187 172 171 183 184 182 185 191 198 201 201 200 202 204 200 204 212 211 212 203 197 218 207 196 205 210 209 196 180 184 186 180 182 181 181 186 195 207 212 210 216 220 218 216 211 205 203 207 206 196 193 194 196 202 208 211 218 224 227 228 230 232 233 232 232 233 235 235 235 238 245 251 254 256 257 259 266 274 280 285 289 293 295 297 298 299
191 178 171 185 186 177 182 193 198 194 198 207 205 202 204 208 208 208 212 209 200 210 216 207 210 217 216 200 181 183 185 183 185 184 189 200 205 208 210 211 217 218 216 215 211 203 200 202 200 197 199 200 198 203 209 212 218 226 230 233 234 235 235 234 234 235 236 236 236 240 247 252 255 257 257 256 262 270 276 282 286 290 293 295 296 297
191 183 169 180 185 180 186 194 197 191 190 199 203 200 202 206 209 211 211 210 208 207 209 210 213 219 215 194 179 185 186 185 189 188 193 205 209 208 210 214 219 217 214 214 209 200 200 202 201 201 204 201 199 204 209 213 219 225 231 235 237 238 238 238 237 237 237 236 237 242 248 252 254 256 255 254 258 266 273 278 283 288 291 292 292 294
187 184 173 178 184 187 193 193 194 195 192 195 201 201 201 201 202 209 208 207 212 216 209 205 218 224 208 181 176 185 186 187 191 190 195 206 210 210 212 217 220 216 212 212 206 198 200 203 202 205 206 203 203 207 211 216 222 229 233 236 239 241 242 243 242 240 239 238 240 244 249 252 253 254 254 252 254 262 269 275 281 285 287 288 289 292
178 179 176 181 186 190 192 189 192 199 198 199 203 203 204 203 202 206 206 203 210 220 218 212 218 207 173 168 175 183 185 187 190 190 192 201 209 213 215 218 220 215 212 212 206 201 201 201 203 207 207 204 206 209 214 219 226 231 230 231 237 242 245 247 247 243 241 241 243 247 251 252 252 252 252 250 252 259 266 272 279 282 284 286 288 291
177 178 176 179 184 186 188 190 196 202 203 204 206 206 208 207 206 211 216 209 212 220 218 214 213 162 147 166 177 182 185 186 190 192 190 195 207 215 217 219 219 214 211 211 207 203 202 201 205 209 206 204 206 211 216 220 223 224 222 226 237 244 246 247 248 246 245 245 247 249 251 250 249 250 250 250 252 258 265 271 276 280 283 286 288 292
183 179 176 177 177 180 185 190 195 202 206 205 206 208 211 211 208 213 221 220 221 221 217 218 212 165 164 177 180 183 186 187 188 189 190 197 206 214 218 221 220 213 210 209 207 205 204 202 207 210 208 208 211 214 217 217 215 214 215 223 237 246 247 246 246 246 246 246 248 250 250 249 248 249 249 249 252 257 264 270 275 280 283 286 290 293
186 182 181 184 180 179 187 190 192 197 202 204 206 208 211 212 209 209 215 219 221 218 217 223 209 155 161 175 178 182 182 183 183 182 192 203 209 213 217 220 220 215 208 207 208 207 205 205 210 213 213 215 217 217 216 213 211 212 217 226 238 245 249 250 248 247 245 246 247 247 246 245 245 245 247 248 252 257 264 270 276 281 284 288 291 294
191 193 192 193 193 192 194 191 188 191 197 203 205 205 207 210 210 208 210 216 220 215 217 222 199 152 163 177 179 180 178 182 186 187 198 208 210 213 218 220 221 215 207 205 209 208 205 207 213 216 216 218 219 218 216 214 212 216 224 232 236 240 246 249 250 249 248 248 247 244 241 240 240 242 244 247 252 259 265 272 277 282 285 289 293 297
192 202 200 199 202 202 196 189 189 194 201 204 204 204 205 207 210 213 212 215 219 218 221 218 193 165 173 183 184 182 179 188 195 197 204 210 211 215 218 220 222 216 207 205 208 209 208 209 213 216 217 219 220 221 221 218 218 224 232 240 244 249 253 251 248 249 250 250 247 241 237 236 237 240 243 247 254 260 267 274 279 283 287 291 295 300
196 200 197 199 206 205 198 198 201 202 204 206 206 206 206 206 210 214 216 215 214 215 220 214 199 188 185 188 191 187 183 191 199 203 206 210 213 217 218 219 221 216 208 207 208 211 212 213 216 218 218 220 221 222 223 223 226 233 239 243 251 262 265 258 253 253 254 251 245 239 236 236 237 240 244 249 256 264 271 276 280 284 289 293 299 303
197 196 193 199 208 206 204 205 202 202 205 207 208 209 208 208 209 212 215 215 213 216 223 225 219 210 196 191 194 193 192 199 206 210 212 214 215 217 218 220 218 213 209 209 210 213 216 218 220 221 221 221 222 224 225 226 232 239 242 246 256 265 267 266 263 259 255 249 241 237 235 236 238 243 248 255 262 269 274 277 280 285 291 296 301 304
196 193 190 197 204 203 208 209 201 202 210 212 211 211 210 211 211 210 210 211 213 216 222 230 234 218 202 197 196 196 199 204 210 217 218 217 220 222 223 221 216 211 210 211 212 214 217 219 221 222 219 215 216 222 225 227 233 239 245 253 261 266 268 270 270 262 251 242 237 235 235 237 242 247 254 260 266 270 274 277 281 287 293 298 302 305
193 191 187 193 199 197 202 210 207 208 217 220 217 213 211 211 212 211 210 210 212 213 215 222 224 212 200 201 204 207 213 214 216 225 228 226 231 236 234 229 222 214 210 211 214 215 217 220 222 224 221 214 214 219 223 226 233 239 247 255 262 269 272 272 270 257 244 237 234 233 235 238 243 250 256 261 266 269 273 277 283 289 295 298 300 303
186 188 186 193 201 199 197 204 210 212 220 225 221 215 211 211 211 211 211 212 212 212 213 214 216 207 194 197 203 210 221 227 227 234 244 248 250 247 239 235 231 224 218 215 214 216 220 222 224 227 225 217 214 215 219 226 232 238 246 253 262 270 273 271 264 249 238 234 233 233 234 237 241 247 253 257 262 267 271 278 285 291 295 296 294 303
184 186 185 190 201 202 193 196 208 215 221 223 216 211 210 213 213 212 213 212 210 212 214 212 212 207 192 200 209 210 215 228 236 244 249 248 247 246 239 231 228 226 225 223 219 218 221 223 225 226 221 213 209 207 213 224 231 239 250 257 264 270 271 265 252 239 233 232 232 234 236 237 238 238 243 248 253 260 267 277 289 294 293 288 289 328
181 182 180 186 197 195 183 187 204 216 219 213 206 207 208 210 212 214 216 216 212 213 215 212 213 211 197 198 208 206 206 224 238 245 246 241 239 241 241 236 230 226 226 227 224 220 220 224 225 220 209 205 205 204 211 225 236 247 255 261 268 271 264 249 233 226 226 226 228 231 233 231 229 226 228 232 236 244 258 280 297 295 285 278 300 337
182 183 182 186 195 186 177 190 209 222 218 208 202 208 209 207 209 213 216 217 215 215 216 213 212 213 208 200 204 209 210 219 233 241 239 234 234 237 238 238 236 231 228 224 220 217 218 221 219 213 207 206 206 207 218 232 243 252 259 267 271 263 245 228 221 220 222 223 225 228 224 217 212 210 207 206 209 215 241 277 284 277 264 263 298 328
187 188 187 191 200 193 186 201 216 236 237 222 213 213 209 205 209 214 217 219 216 213 214 212 209 210 210 203 203 209 210 215 228 236 235 234 238 241 240 238 238 236 228 218 215 220 222 219 211 205 208 211 209 211 223 236 245 254 264 268 260 242 225 218 218 220 222 222 223 220 211 199 194 193 191 192 197 206 238 250 247 238 229 233 283 325
193 195 193 193 203 209 207 211 215 226 240 232 224 218 208 203 207 209 217 225 220 213 211 210 208 210 209 206 209 211 211 219 232 235 233 237 244 243 241 237 229 224 217 208 208 216 223 221 210 201 202 205 207 215 226 237 249 260 265 255 233 217 214 216 217 220 221 219 215 209 199 193 192 190 188 189 195 206 215 212 202 197 199 209 271 324
195 198 201 199 204 213 219 219 216 221 228 218 210 210 207 207 204 200 215 230 225 215 212 209 210 212 211 212 217 215 213 221 233 233 230 239 249 242 241 234 218 207 203 201 202 208 215 216 210 204 202 204 211 220 230 241 255 260 250 226 210 208 213 216 216 216 213 209 208 210 210 207 202 193 184 181 186 190 188 184 183 185 191 197 226 277
196 200 206 208 208 210 217 224 221 220 219 187 176 189 199 201 197 195 214 233 223 214 212 211 212 213 211 215 221 218 213 219 234 238 233 239 248 243 239 230 212 194 187 189 196 205 208 206 204 202 201 206 214 222 231 245 255 247 222 204 202 208 213 213 212 210 207 208 216 223 220 211 196 181 172 172 174 175 175 176 181 186 189 193 216 259
196 202 208 212 214 210 213 227 229 221 216 201 193 195 194 190 193 200 210 215 199 201 206 210 211 207 208 215 220 218 216 221 234 239 235 238 246 246 243 229 201 181 182 190 196 201 200 196 197 200 202 209 215 220 232 246 246 226 206 199 204 210 212 213 214 215 216 218 220 216 205 192 178 168 165 166 168 170 174 180 184 186 190 203 232 289
191 198 205 211 217 214 210 223 232 221 211 211 208 208 203 193 196 207 211 196 184 191 198 206 207 203 208 217 219 219 224 229 234 238 239 241 245 249 247 225 192 175 182 192 192 194 195 193 195 199 202 207 212 220 236 243 229 212 202 203 208 213 216 218 220 220 218 214 207 196 184 175 168 163 163 166 168 172 178 182 185 190 197 215 277 325
189 194 201 205 211 213 210 218 229 227 213 211 211 212 210 207 209 212 208 208 212 205 197 197 199 203 210 218 221 224 231 234 234 237 240 240 242 248 242 218 193 178 180 185 185 188 193 195 198 201 203 206 213 228 239 229 212 203 202 207 212 216 220 220 218 215 210 202 192 182 172 166 162 161 165 168 171 176 181 184 189 194 203 250 316 326
195 196 202 203 204 208 211 213 221 228 203 189 199 211 212 212 218 222 217 220 237 245 207 187 188 201 211 218 223 227 231 234 235 237 237 236 240 243 230 215 201 187 181 184 187 189 192 195 200 204 204 208 222 234 228 213 203 200 204 210 213 215 215 213 210 207 201 192 184 175 168 164 162 163 166 171 178 182 183 185 189 195 229 290 314 323
202 202 211 213 205 209 219 215 202 199 200 200 225 242 236 229 230 233 237 239 243 245 212 184 187 202 212 217 222 225 228 232 234 235 234 235 239 237 225 218 208 190 181 185 188 189 192 196 201 205 206 211 224 225 211 203 201 201 204 207 206 205 205 205 204 200 192 184 177 170 166 164 163 165 170 178 183 184 182 185 194 215 266 294 314 324
209 209 216 223 215 218 232 235 218 196 222 236 265 274 254 244 239 232 236 244 244 239 222 198 200 210 214 213 211 215 222 227 230 232 233 236 239 228 214 209 198 183 180 187 189 189 192 194 196 200 203 209 216 210 200 198 200 199 200 200 198 199 201 201 199 193 184 177 170 166 165 165 165 169 177 182 184 182 182 190 208 242 273 297 317 327
220 217 215 221 225 223 232 236 232 224 224 233 255 267 252 245 242 235 233 239 243 241 236 233 237 230 215 206 205 213 220 223 227 231 233 235 235 217 197 190 184 179 182 189 191 192 194 194 192 195 201 207 208 199 194 195 196 195 195 195 197 201 201 197 193 187 178 172 167 165 165 166 169 175 179 182 181 180 186 203 226 253 272 299 321 329
219 226 220 222 228 228 230 230 226 224 227 234 248 257 254 251 249 243 238 238 241 242 240 241 253 248 224 215 218 222 224 224 225 229 231 231 225 203 187 183 181 180 185 192 194 194 195 193 193 196 201 203 200 193 191 193 194 194 195 197 201 203 200 193 186 179 173 169 167 166 166 168 174 178 178 178 180 183 196 212 223 237 257 295 321 342
206 220 223 221 227 230 229 225 225 230 238 247 253 253 254 261 264 251 240 237 239 242 241 240 245 252 250 243 232 226 225 225 226 228 229 228 216 196 186 185 184 184 190 195 195 193 192 192 194 200 202 199 194 191 192 193 193 196 200 204 204 201 195 188 180 174 170 168 166 167 168 171 176 177 175 177 183 189 197 199 191 185 172 131 42 33
218 220 222 220 221 224 222 219 220 224 231 241 245 243 246 261 274 264 242 232 232 237 239 239 243 251 259 257 243 229 225 227 230 230 226 221 211 196 189 187 187 190 194 195 192 190 189 190 195 200 199 194 190 191 192 192 194 200 205 209 206 197 190 185 177 172 170 168 167 169 171 172 174 175 176 181 185 186 185 177 163 153 140 104 65 53
228 223 216 211 207 208 212 217 220 221 225 233 239 239 243 254 265 262 244 231 231 236 238 240 244 250 256 255 244 231 226 227 229 228 220 210 202 195 190 189 191 194 196 195 193 191 190 191 195 198 195 191 189 190 192 194 199 205 210 210 202 191 185 180 175 172 170 168 168 171 172 172 173 176 179 181 180 176 170 161 152 144 132 97 63 56
Height
3064 3066 3065 3065 3068 3072 3075 3078 3081 3083 3084 3085 3086 3087 3088 3087 3088 3090 3091 3092 3095 3098 3098 3101 3102 3102 3104 3100 3098 3103 3106 3109 3112 3113 3115 3117 3117 3117 3119 3121 3123 3123 3123 3124 3126 3129 3131 3131 3133 3135 3137 3139 3138 3136 3137 3138 3140 3143 3146 3148 3149 3148 3148 3150 3150 3150 3150 3151 3151 3153 3154 3154 3155 3155 3157 3158 3159 3161 3161 3162 3163 3163 3164 3165 3165 3165
3062 3061 3060 3063 3068 3072 3075 3078 3081 3082 3083 3084 3083 3085 3086 3086 3086 3088 3090 3091 3094 3096 3097 3100 3100 3102 3103 3097 3096 3103 3105 3106 3109 3111 3113 3114 3114 3114 3116 3120 3122 3121 3122 3125 3128 3130 3130 3131 3134 3137 3140 3143 3141 3139 3140 3142 3144 3147 3147 3147 3149 3149 3148 3149 3150 3149 3150 3151 3151 3153 3153 3152 3153 3155 3156 3158 3159 3160 3161 3162 3162 3163 3164 3164 3164 3165
3057 3055 3058 3064 3068 3072 3074 3077 3079 3080 3082 3083 3082 3083 3083 3084 3085 3086 3088 3090 3093 3095 3095 3098 3100 3101 3100 3094 3095 3102 3104 3104 3107 3109 3111 3111 3112 3112 3114 3119 3123 3123 3124 3126 3129 3130 3129 3131 3135 3137 3140 3142 3143 3142 3143 3144 3147 3148 3147 3147 3149 3149 3147 3147 3149 3150 3150 3151 3151 3152 3151 3151 3153 3155 3157 3158 3159 3160 3161 3161 3162 3163 3163 3163 3164 3164
3051 3052 3058 3064 3066 3070 3072 3075 3077 3079 3081 3081 3081 3081 3081 3082 3082 3082 3085 3089 3092 3094 3094 3096 3099 3098 3094 3092 3096 3102 3103 3103 3105 3108 3109 3110 3112 3113 3113 3117 3122 3125 3126 3128 3130 3130 3129 3131 3134 3136 3139 3141 3143 3143 3143 3144 3146 3147 3147 3148 3149 3149 3147 3147 3149 3150 3151 3151 3151 3150 3150 3152 3154 3156 3157 3158 3159 3159 3160 3161 3161 3162 3162 3163 3163 3163
3050 3053 3058 3062 3065 3068 3070 3072 3075 3077 3078 3079 3079 3079 3079 3080 3080 3081 3084 3088 3092 3093 3093 3094 3096 3094 3092 3092 3097 3100 3102 3104 3104 3106 3108 3109 3111 3113 3113 3116 3121 3124 3126 3127 3129 3129 3129 3130 3132 3134 3137 3140 3141 3142 3142 3143 3144 3146 3147 3148 3148 3148 3148 3149 3149 3150 3151 3151 3150 3150 3152 3154 3155 3156 3158 3158 3158 3159 3159 3160 3161 3161 3161 3162 3162 3162
3051 3053 3056 3060 3062 3065 3068 3069 3071 3074 3076 3077 3078 3078 3078 3079 3080 3081 3083 3087 3090 3090 3090 3091 3091 3090 3091 3093 3096 3099 3101 3103 3105 3106 3107 3108 3110 3112 3112 3114 3117 3120 3123 3124 3125 3126 3126 3128 3130 3133 3136 3138 3140 3141 3141 3142 3144 3147 3148 3147 3146 3148 3149 3150 3150 3151 3151 3150 3149 3151 3153 3155 3156 3157 3157 3158 3158 3158 3159 3159 3160 3160 3160 3160 3160 3161
3049 3052 3054 3056 3060 3063 3066 3067 3069 3073 3074 3075 3075 3077 3079 3078 3078 3080 3083 3085 3085 3085 3087 3089 3088 3086 3089 3091 3094 3098 3100 3102 3104 3105 3107 3108 3109 3111 3113 3114 3116 3117 3119 3121 3123 3124 3125 3127 3129 3131 3135 3137 3138 3139 3140 3141 3144 3147 3148 3146 3146 3148 3150 3150 3150 3151 3150 3148 3149 3152 3154 3155 3156 3157 3157 3157 3157 3158 3158 3158 3159 3159 3159 3159 3159 3159
3045 3049 3051 3054 3058 3060 3062 3064 3066 3070 3072 3072 3074 3077 3079 3078 3077 3079 3082 3083 3083 3084 3085 3087 3088 3085 3085 3088 3091 3097 3101 3102 3103 3104 3106 3107 3109 3110 3112 3115 3116 3116 3118 3119 3121 3122 3124 3126 3129 3132 3135 3136 3137 3138 3140 3142 3143 3145 3146 3146 3147 3148 3149 3151 3151 3150 3149 3149 3151 3153 3155 3156 3156 3156 3157 3157 3157 3157 3157 3157 3158 3158 3158 3158 3158 3158
3043 3046 3048 3051 3055 3057 3059 3062 3065 3069 3071 3072 3074 3076 3078 3079 3078 3079 3082 3082 3082 3083 3081 3083 3087 3084 3081 3084 3089 3094 3099 3100 3101 3103 3105 3106 3108 3109 3111 3114 3115 3116 3118 3119 3120 3122 3124 3127 3129 3131 3134 3135 3137 3139 3141 3142 3142 3143 3145 3146 3148 3149 3149 3150 3150 3149 3149 3150 3152 3153 3155 3156 3156 3156 3156 3156 3156 3156 3156 3157 3157 3157 3157 3157 3157 3157
3042 3044 3047 3050 3052 3055 3058 3062 3065 3068 3070 3072 3073 3075 3078 3079 3079 3080 3080 3080 3081 3080 3076 3078 3083 3082 3079 3082 3087 3091 3095 3097 3099 3102 3104 3106 3107 3107 3109 3112 3113 3114 3116 3118 3119 3122 3124 3126 3128 3130 3133 3135 3137 3139 3140 3141 3142 3143 3145 3146 3148 3150 3150 3149 3149 3149 3150 3151 3152 3154 3154 3155 3155 3155 3155 3155 3155 3156 3156 3156 3156 3156 3156 3156 3156 3157
3041 3044 3047 3049 3051 3054 3058 3061 3064 3066 3069 3072 3072 3074 3077 3079 3079 3080 3080 3080 3079 3074 3072 3076 3080 3082 3079 3078 3083 3087 3090 3094 3098 3100 3103 3105 3106 3106 3107 3109 3110 3112 3115 3116 3119 3121 3123 3125 3127 3131 3133 3135 3136 3137 3138 3139 3142 3144 3145 3146 3147 3148 3149 3148 3149 3149 3150 3151 3152 3153 3153 3154 3154 3154 3154 3154 3154 3155 3155 3155 3155 3155 3155 3155 3156 3156
3040 3042 3044 3047 3050 3054 3057 3059 3062 3065 3067 3070 3071 3073 3075 3076 3079 3080 3079 3080 3075 3069 3071 3076 3079 3081 3078 3076 3081 3085 3087 3092 3096 3098 3101 3103 3105 3105 3106 3108 3108 3109 3112 3115 3117 3119 3121 3124 3127 3130 3132 3133 3134 3135 3136 3137 3140 3143 3144 3145 3146 3147 3147 3147 3148 3149 3150 3151 3151 3152 3152 3152 3152 3153 3153 3153 3153 3154 3154 3154 3154 3154 3154 3154 3155 3155
3038 3041 3042 3046 3048 3051 3054 3056 3060 3063 3065 3067 3069 3070 3070 3071 3075 3076 3074 3074 3071 3067 3070 3075 3077 3077 3075 3076 3080 3083 3086 3090 3093 3097 3099 3102 3104 3104 3105 3106 3106 3107 3110 3113 3115 3117 3121 3125 3127 3128 3130 3131 3133 3134 3135 3136 3138 3141 3142 3144 3144 3145 3145 3146 3147 3149 3149 3150 3150 3151 3151 3151 3151 3151 3152 3152 3152 3153 3153 3153 3153 3153 3153 3153 3154 3154
3036 3040 3041 3043 3045 3048 3051 3052 3054 3057 3060 3062 3065 3065 3064 3064 3068 3071 3069 3068 3068 3069 3071 3073 3074 3072 3072 3076 3078 3081 3085 3089 3092 3095 3097 3100 3102 3103 3104 3105 3105 3106 3108 3111 3114 3117 3121 3123 3124 3127 3130 3131 3132 3133 3134 3135 3137 3139 3141 3142 3143 3144 3144 3145 3146 3148 3148 3149 3149 3149 3149 3150 3150 3150 3151 3151 3151 3152 3152 3152 3152 3152 3152 3152 3153 3153
3031 3033 3035 3038 3040 3043 3047 3049 3051 3054 3058 3060 3063 3064 3062 3060 3063 3066 3065 3064 3066 3068 3069 3071 3070 3067 3070 3074 3076 3079 3084 3088 3091 3093 3096 3098 3100 3102 3103 3103 3104 3105 3106 3109 3113 3116 3120 3122 3124 3127 3129 3130 3131 3132 3133 3135 3137 3138 3139 3140 3142 3143 3143 3144 3146 3147 3147 3148 3148 3148 3148 3149 3149 3149 3150 3150 3151 3151 3151 3151 3151 3151 3152 3152 3152 3152
3028 3029 3031 3036 3039 3041 3045 3048 3052 3055 3057 3059 3063 3063 3060 3058 3060 3064 3064 3064 3065 3066 3066 3068 3068 3067 3070 3073 3077 3080 3083 3087 3090 3092 3094 3096 3098 3100 3100 3101 3103 3104 3104 3107 3111 3115 3118 3121 3123 3125 3128 3129 3131 3131 3133 3135 3136 3137 3138 3139 3141 3142 3143 3144 3145 3145 3146 3146 3147 3147 3148 3148 3148 3149 3149 3149 3150 3150 3150 3150 3150 3151 3151 3151 3151 3151
3026 3028 3031 3035 3038 3041 3044 3047 3050 3052 3053 3057 3060 3058 3057 3060 3061 3063 3064 3065 3067 3065 3063 3066 3067 3068 3072 3074 3077 3080 3082 3085 3088 3091 3093 3094 3096 3097 3097 3100 3102 3102 3103 3107 3111 3114 3118 3120 3121 3123 3127 3129 3130 3131 3132 3133 3134 3136 3137 3138 3140 3141 3141 3142 3143 3144 3144 3145 3146 3146 3147 3147 3147 3148 3148 3148 3149 3149 3149 3149 3150 3150 3150 3150 3150 3149
3024 3026 3031 3034 3037 3040 3044 3047 3050 3051 3052 3054 3055 3056 3059 3062 3062 3061 3063 3064 3067 3066 3062 3063 3066 3067 3071 3073 3076 3079 3081 3083 3086 3089 3091 3093 3095 3094 3095 3100 3101 3100 3102 3106 3110 3113 3116 3118 3120 3122 3125 3127 3128 3130 3131 3132 3133 3134 3136 3137 3138 3139 3140 3141 3141 3142 3143 3144 3145 3145 3146 3146 3146 3147 3147 3147 3148 3148 3148 3148 3149 3149 3149 3149 3149 3148
3023 3025 3031 3035 3036 3039 3043 3047 3048 3049 3051 3052 3053 3056 3058 3058 3057 3059 3060 3061 3064 3064 3060 3061 3064 3066 3067 3069 3072 3076 3079 3082 3084 3087 3089 3091 3092 3092 3094 3098 3097 3097 3101 3105 3108 3111 3114 3116 3118 3120 3122 3124 3126 3127 3129 3131 3132 3133 3134 3136 3137 3138 3138 3139 3140 3141 3142 3143 3143 3144 3145 3145 3145 3146 3146 3146 3147 3147 3147 3148 3148 3148 3148 3147 3147 3147
3021 3023 3029 3034 3036 3039 3041 3043 3043 3045 3048 3051 3053 3055 3055 3055 3055 3056 3056 3057 3060 3061 3059 3060 3063 3063 3063 3066 3069 3072 3076 3080 3082 3084 3086 3088 3090 3090 3092 3094 3094 3095 3100 3102 3105 3109 3112 3114 3116 3118 3120 3122 3124 3126 3128 3130 3130 3132 3133 3134 3136 3136 3137 3138 3139 3140 3140 3141 3142 3143 3143 3143 3144 3144 3144 3145 3145 3146 3146 3147 3147 3147 3146 3146 3146 3145
3021 3023 3027 3033 3036 3037 3037 3037 3038 3041 3045 3047 3049 3050 3051 3053 3054 3054 3055 3057 3058 3057 3058 3060 3060 3059 3061 3063 3066 3070 3074 3077 3079 3082 3084 3086 3087 3088 3089 3090 3091 3094 3098 3100 3104 3108 3110 3113 3115 3117 3119 3121 3123 3124 3126 3127 3129 3130 3131 3132 3134 3135 3135 3136 3137 3138 3139 3139 3140 3141 3141 3142 3142 3143 3143 3144 3144 3144 3145 3145 3145 3145 3145 3145 3145 3144
3020 3022 3026 3030 3032 3032 3032 3034 3038 3041 3043 3045 3046 3047 3048 3050 3052 3052 3052 3055 3056 3054 3054 3058 3058 3058 3060 3062 3065 3069 3072 3075 3078 3081 3083 3084 3085 3086 3087 3088 3090 3093 3096 3098 3103 3106 3108 3111 3113 3114 3116 3119 3120 3122 3124 3125 3127 3128 3129 3131 3132 3133 3134 3135 3135 3136 3137 3137 3138 3139 3140 3140 3141 3141 3142 3142 3142 3143 3143 3143 3144 3144 3144 3143 3143 3143
3020 3023 3025 3028 3030 3031 3033 3035 3039 3041 3043 3045 3046 3047 3048 3049 3050 3051 3050 3052 3054 3053 3053 3056 3057 3057 3060 3062 3065 3069 3071 3074 3077 3079 3081 3083 3083 3084 3085 3086 3089 3092 3094 3097 3101 3104 3106 3109 3111 3112 3115 3117 3118 3120 3122 3123 3125 3127 3128 3129 3130 3131 3132 3133 3133 3134 3135 3136 3137 3137 3138 3139 3139 3140 3140 3140 3141 3141 3142 3142 3142 3142 3142 3142 3141 3141
3020 3021 3024 3027 3030 3032 3035 3036 3039 3041 3042 3043 3044 3045 3046 3046 3048 3050 3050 3052 3053 3052 3052 3055 3056 3057 3060 3062 3065 3068 3071 3074 3076 3077 3079 3080 3080 3082 3084 3085 3087 3090 3093 3096 3099 3102 3105 3107 3109 3110 3113 3114 3116 3118 3120 3122 3124 3125 3126 3127 3129 3130 3130 3131 3131 3132 3133 3134 3135 3135 3136 3137 3138 3138 3139 3139 3139 3140 3140 3140 3140 3140 3140 3140 3140 3140
3019 3019 3021 3023 3025 3029 3032 3034 3035 3037 3037 3038 3040 3043 3044 3045 3048 3051 3052 3052 3052 3051 3051 3052 3053 3057 3060 3062 3064 3067 3070 3073 3074 3076 3077 3076 3077 3080 3082 3084 3086 3088 3091 3094 3097 3100 3102 3105 3107 3108 3110 3112 3114 3116 3118 3120 3122 3123 3125 3126 3127 3128 3129 3129 3130 3130 3131 3132 3133 3134 3135 3135 3136 3137 3137 3138 3138 3138 3138 3139 3139 3139 3139 3139 3138 3138
3018 3019 3019 3018 3018 3021 3023 3024 3025 3029 3033 3035 3038 3041 3043 3045 3048 3049 3051 3051 3049 3050 3051 3051 3053 3057 3060 3062 3064 3066 3069 3071 3073 3074 3074 3074 3075 3078 3080 3082 3084 3086 3089 3092 3094 3097 3100 3102 3104 3106 3107 3109 3112 3114 3115 3117 3119 3121 3123 3125 3126 3127 3127 3128 3128 3129 3129 3130 3131 3132 3132 3133 3134 3135 3135 3136 3136 3136 3137 3137 3137 3137 3137 3137 3137 3137
3019 3018 3018 3018 3019 3019 3020 3022 3025 3029 3032 3034 3036 3039 3041 3044 3046 3047 3048 3048 3048 3049 3050 3051 3054 3057 3059 3061 3063 3065 3067 3069 3070 3071 3071 3071 3074 3076 3078 3080 3081 3084 3087 3090 3092 3095 3098 3100 3101 3103 3105 3107 3109 3111 3112 3115 3117 3120 3122 3125 3126 3126 3126 3126 3126 3127 3127 3128 3128 3129 3130 3131 3132 3132 3133 3134 3134 3135 3135 3135 3135 3135 3135 3135 3135 3135
3019 3018 3018 3019 3020 3021 3022 3025 3028 3030 3031 3033 3035 3037 3039 3042 3044 3045 3045 3046 3048 3049 3049 3051 3055 3056 3058 3061 3062 3063 3066 3066 3066 3067 3068 3069 3072 3074 3076 3077 3079 3082 3085 3088 3090 3093 3096 3097 3098 3100 3102 3104 3107 3109 3111 3114 3117 3119 3122 3124 3125 3125 3125 3125 3125 3125 3125 3126 3126 3127 3128 3129 3130 3131 3131 3132 3133 3133 3133 3133 3133 3134 3134 3134 3133 3133
3018 3017 3018 3020 3020 3021 3022 3025 3027 3029 3031 3033 3035 3036 3038 3040 3042 3043 3044 3047 3049 3049 3049 3052 3054 3055 3058 3061 3061 3063 3065 3065 3064 3065 3066 3067 3070 3071 3073 3075 3078 3081 3084 3086 3089 3091 3093 3094 3095 3097 3100 3103 3106 3108 3111 3114 3116 3117 3120 3122 3123 3123 3123 3123 3123 3124 3124 3124 3125 3126 3127 3128 3129 3129 3130 3130 3131 3131 3131 3132 3132 3132 3132 3132 3131 3131
3017 3017 3019 3021 3021 3022 3023 3024 3026 3028 3030 3031 3033 3035 3037 3038 3040 3042 3045 3047 3049 3049 3051 3052 3053 3055 3057 3059 3061 3063 3064 3063 3064 3064 3065 3066 3068 3070 3072 3074 3077 3080 3082 3085 3087 3089 3091 3092 3094 3096 3098 3101 3104 3107 3110 3113 3115 3116 3118 3120 3120 3121 3120 3121 3121 3122 3122 3123 3124 3125 3126 3127 3127 3128 3129 3129 3129 3130 3130 3130 3130 3130 3130 3130 3130 3129
3016 3017 3019 3021 3022 3022 3023 3024 3025 3028 3029 3030 3031 3033 3035 3037 3039 3041 3044 3046 3048 3049 3052 3053 3054 3055 3056 3058 3060 3061 3061 3063 3064 3065 3066 3067 3068 3070 3072 3074 3076 3078 3080 3083 3084 3086 3088 3090 3091 3093 3094 3098 3103 3107 3110 3113 3114 3115 3117 3117 3118 3118 3118 3118 3119 3119 3120 3121 3122 3123 3124 3125 3126 3127 3127 3128 3128 3128 3128 3128 3128 3128 3128 3128 3128 3128
3015 3017 3020 3022 3021 3021 3024 3025 3026 3028 3030 3029 3029 3030 3032 3035 3037 3039 3042 3044 3046 3048 3051 3052 3053 3054 3056 3058 3058 3059 3061 3063 3064 3065 3066 3068 3069 3070 3072 3073 3075 3077 3078 3079 3081 3083 3085 3087 3089 3091 3093 3098 3103 3106 3109 3111 3113 3114 3115 3115 3115 3116 3116 3116 3116 3117 3118 3120 3121 3122 3123 3124 3125 3125 3126 3126 3126 3127 3127 3127 3127 3127 3127 3127 3127 3127
3016 3017 3019 3021 3020 3021 3024 3026 3028 3029 3029 3026 3025 3027 3030 3033 3035 3038 3040 3042 3045 3047 3049 3050 3051 3054 3056 3057 3056 3057 3060 3061 3062 3064 3066 3067 3068 3069 3070 3072 3074 3075 3076 3076 3078 3081 3083 3086 3089 3093 3096 3100 3102 3103 3105 3108 3110 3111 3113 3113 3113 3114 3114 3114 3115 3116 3117 3118 3120 3120 3121 3122 3123 3124 3124 3125 3125 3125 3126 3126 3126 3126 3126 3126 3126 3126
3016 3017 3019 3020 3020 3021 3024 3027 3028 3028 3025 3022 3023 3026 3029 3031 3034 3036 3038 3040 3043 3046 3047 3049 3051 3053 3054 3055 3055 3057 3060 3061 3061 3063 3064 3065 3066 3068 3069 3071 3072 3072 3073 3075 3078 3080 3083 3086 3090 3092 3095 3097 3098 3099 3102 3105 3107 3109 3110 3110 3111 3111 3111 3112 3113 3114 3116 3117 3118 3119 3121 3121 3122 3122 3122 3123 3124 3124 3124 3124 3124 3125 3125 3126 3126 3125
3016 3017 3018 3020 3020 3020 3023 3026 3027 3024 3021 3021 3023 3025 3027 3030 3033 3035 3037 3039 3042 3044 3046 3048 3050 3052 3053 3054 3055 3056 3059 3060 3060 3060 3062 3063 3065 3066 3068 3069 3069 3069 3071 3074 3077 3080 3083 3085 3086 3088 3091 3093 3094 3097 3100 3102 3105 3106 3107 3108 3108 3108 3109 3110 3112 3113 3115 3116 3117 3118 3119 3120 3120 3121 3121 3122 3122 3123 3123 3123 3123 3124 3125 3125 3125 3125
3016 3017 3018 3019 3019 3019 3022 3024 3024 3021 3020 3021 3023 3024 3026 3029 3031 3033 3035 3037 3039 3042 3044 3047 3049 3051 3052 3053 3054 3056 3057 3058 3058 3058 3060 3061 3063 3065 3066 3066 3066 3067 3070 3073 3076 3078 3080 3081 3083 3087 3091 3092 3094 3096 3099 3101 3103 3104 3105 3105 3106 3106 3107 3109 3110 3112 3114 3115 3116 3116 3117 3118 3118 3119 3120 3120 3121 3121 3121 3122 3123 3123 3124 3125 3125 3124
3016 3017 3017 3018 3018 3018 3020 3022 3021 3021 3021 3021 3021 3023 3025 3028 3030 3032 3034 3035 3037 3040 3042 3045 3047 3049 3051 3052 3053 3054 3055 3056 3056 3056 3057 3060 3062 3063 3064 3064 3065 3067 3069 3072 3075 3077 3079 3081 3084 3089 3092 3093 3094 3096 3098 3100 3101 3102 3103 3103 3103 3105 3106 3108 3110 3111 3113 3113 3114 3115 3115 3116 3117 3118 3119 3119 3119 3120 3120 3121 3122 3123 3123 3123 3123 3123
3016 3017 3017 3018 3018 3018 3019 3019 3019 3019 3019 3019 3020 3022 3024 3026 3029 3031 3033 3033 3035 3037 3039 3042 3045 3047 3050 3051 3050 3051 3052 3054 3054 3054 3056 3059 3061 3061 3061 3062 3064 3066 3068 3070 3073 3076 3079 3082 3086 3089 3091 3092 3094 3095 3097 3099 3100 3100 3100 3101 3102 3104 3105 3107 3109 3111 3112 3113 3113 3114 3115 3115 3116 3116 3117 3117 3118 3118 3119 3120 3121 3122 3122 3122 3122 3122
3016 3017 3017 3018 3018 3019 3019 3017 3016 3016 3016 3018 3020 3021 3023 3024 3027 3030 3031 3030 3031 3033 3036 3039 3041 3044 3047 3047 3047 3048 3050 3051 3051 3052 3055 3059 3060 3059 3059 3060 3062 3063 3066 3069 3072 3075 3078 3081 3084 3086 3088 3091 3093 3094 3096 3097 3097 3098 3098 3099 3101 3103 3105 3107 3109 3110 3111 3112 3113 3114 3114 3114 3115 3115 3115 3115 3116 3118 3119 3120 3121 3121 3121 3121 3121 3121
3014 3015 3016 3017 3017 3018 3019 3017 3015 3016 3016 3017 3019 3020 3022 3023 3026 3028 3028 3026 3027 3030 3032 3035 3038 3041 3044 3044 3044 3045 3047 3049 3051 3052 3054 3058 3058 3057 3057 3058 3059 3061 3064 3067 3070 3073 3077 3080 3082 3084 3087 3089 3091 3092 3094 3094 3095 3095 3097 3098 3100 3102 3104 3106 3108 3109 3110 3111 3112 3112 3112 3112 3113 3113 3113 3114 3116 3117 3119 3120 3120 3120 3120 3120 3120 3120
3013 3014 3015 3015 3015 3016 3018 3017 3015 3015 3015 3017 3019 3020 3021 3023 3024 3025 3024 3023 3025 3027 3029 3032 3035 3038 3040 3040 3041 3043 3046 3048 3049 3050 3052 3055 3055 3054 3055 3057 3059 3061 3064 3066 3069 3072 3075 3078 3080 3083 3086 3087 3089 3090 3091 3092 3093 3094 3095 3097 3099 3101 3103 3105 3106 3107 3108 3109 3110 3111 3111 3111 3111 3112 3113 3114 3116 3117 3118 3119 3119 3119 3119 3120 3120 3119
3011 3012 3013 3013 3013 3014 3016 3016 3015 3014 3014 3016 3018 3019 3020 3022 3022 3022 3022 3023 3024 3025 3028 3030 3032 3035 3037 3037 3039 3042 3044 3045 3046 3047 3050 3052 3052 3053 3054 3056 3058 3060 3063 3066 3070 3072 3074 3077 3079 3082 3084 3085 3087 3088 3090 3091 3092 3093 3094 3096 3099 3101 3102 3104 3105 3106 3107 3108 3109 3109 3110 3110 3111 3112 3113 3115 3116 3117 3118 3118 3118 3119 3119 3119 3119 3118
3009 3010 3010 3011 3012 3012 3013 3014 3013 3012 3012 3015 3017 3018 3019 3020 3021 3021 3022 3023 3023 3024 3025 3028 3031 3034 3035 3036 3038 3041 3041 3041 3043 3046 3047 3049 3050 3052 3053 3054 3056 3058 3061 3064 3067 3070 3073 3076 3078 3080 3082 3083 3085 3087 3088 3089 3091 3092 3094 3096 3098 3100 3101 3102 3104 3105 3106 3107 3108 3108 3109 3109 3111 3112 3114 3115 3116 3117 3117 3118 3118 3118 3118 3118 3118 3118
3007 3008 3008 3009 3010 3010 3010 3011 3011 3011 3012 3014 3016 3017 3018 3019 3020 3021 3022 3022 3022 3023 3024 3026 3029 3031 3032 3033 3035 3037 3038 3039 3041 3043 3044 3046 3049 3050 3051 3052 3054 3056 3059 3063 3065 3068 3071 3074 3076 3078 3080 3081 3083 3085 3087 3088 3090 3091 3093 3095 3097 3099 3100 3101 3102 3104 3105 3106 3106 3107 3108 3109 3111 3112 3114 3115 3116 3117 3117 3117 3117 3117 3117 3117 3117 3117
3005 3006 3006 3007 3008 3009 3009 3009 3010 3011 3012 3014 3015 3016 3017 3018 3019 3020 3021 3021 3022 3022 3023 3025 3027 3028 3029 3030 3033 3034 3035 3037 3038 3040 3042 3044 3046 3048 3049 3051 3053 3055 3059 3062 3065 3067 3070 3073 3075 3077 3078 3080 3082 3084 3086 3087 3089 3091 3093 3095 3096 3098 3099 3100 3101 3103 3104 3105 3105 3106 3108 3109 3111 3112 3114 3115 3116 3116 3116 3116 3117 3117 3117 3117 3117 3117
3003 3004 3005 3006 3008 3009 3008 3008 3009 3011 3012 3013 3014 3015 3016 3017 3018 3019 3019 3020 3021 3022 3023 3024 3026 3026 3027 3029 3031 3031 3032 3034 3036 3037 3040 3042 3044 3045 3047 3049 3052 3055 3058 3061 3063 3066 3069 3071 3073 3075 3077 3079 3081 3083 3085 3086 3088 3090 3092 3094 3095 3096 3098 3099 3100 3101 3103 3104 3105 3106 3108 3109 3111 3112 3114 3114 3115 3115 3116 3116 3116 3116 3116 3117 3116 3116
3003 3003 3004 3006 3008 3008 3008 3008 3009 3011 3012 3013 3014 3015 3015 3016 3016 3017 3018 3018 3019 3021 3022 3023 3024 3025 3026 3027 3028 3028 3029 3032 3033 3035 3037 3040 3041 3042 3045 3048 3050 3053 3056 3060 3062 3065 3067 3069 3071 3074 3076 3078 3080 3082 3084 3085 3087 3089 3091 3092 3094 3095 3097 3098 3099 3101 3102 3103 3104 3106 3107 3109 3111 3112 3113 3114 3114 3114 3115 3115 3116 3116 3116 3116 3116 3116
3001 3002 3003 3005 3006 3007 3007 3008 3009 3010 3011 3012 3014 3014 3014 3015 3015 3015 3016 3017 3017 3019 3021 3022 3023 3023 3023 3024 3025 3026 3027 3030 3032 3033 3035 3037 3039 3040 3043 3046 3049 3052 3055 3058 3061 3064 3066 3068 3070 3073 3075 3077 3079 3081 3083 3084 3086 3088 3089 3091 3093 3094 3096 3097 3099 3100 3101 3103 3104 3106 3107 3109 3110 3111 3112 3113 3113 3114 3114 3115 3115 3116 3116 3116 3116 3115
2999 3001 3002 3004 3005 3006 3006 3007 3008 3009 3011 3012 3013 3013 3013 3014 3014 3014 3014 3015 3016 3017 3019 3020 3021 3021 3021 3022 3023 3024 3025 3027 3029 3031 3034 3035 3037 3039 3042 3045 3048 3051 3054 3057 3060 3063 3065 3067 3069 3071 3074 3076 3078 3080 3081 3083 3085 3086 3088 3090 3091 3093 3095 3096 3098 3099 3101 3102 3104 3106 3107 3109 3110 3111 3111 3112 3113 3114 3114 3115 3115 3115 3115 3115 3115 3115
2998 3000 3001 3003 3004 3004 3005 3005 3006 3008 3010 3010 3011 3012 3012 3013 3013 3013 3013 3013 3014 3015 3016 3018 3019 3020 3020 3020 3021 3023 3024 3025 3027 3030 3032 3033 3036 3038 3041 3044 3047 3050 3053 3056 3058 3061 3063 3066 3068 3070 3073 3075 3077 3079 3080 3082 3084 3085 3087 3089 3090 3092 3094 3095 3097 3098 3100 3102 3103 3105 3107 3108 3109 3110 3111 3112 3113 3113 3114 3114 3115 3115 3115 3115 3115 3114
2998 2999 3000 3001 3002 3002 3003 3004 3005 3007 3008 3009 3010 3011 3011 3012 3012 3012 3012 3012 3013 3013 3014 3016 3017 3019 3019 3019 3020 3021 3022 3024 3026 3028 3030 3032 3035 3038 3041 3043 3046 3048 3051 3054 3057 3059 3061 3064 3066 3069 3071 3074 3076 3077 3079 3081 3082 3084 3086 3087 3089 3091 3093 3095 3096 3098 3099 3101 3103 3105 3106 3107 3108 3109 3110 3111 3112 3113 3114 3114 3114 3114 3114 3114 3114 3114